Time,TemperatureF,DewpointF,PressureIn,WindDirection,WindDirectionDegrees,WindSpeedMPH,WindSpeedGustMPH,Humidity,HourlyPrecipIn,Conditions,Clouds,dailyrainin,SolarRadiationWatts/m^2,SoftwareType,DateUTC
2013-03-10 00:02:00,47.0,30.0,29.40,NNE,19,1.0,4.0,52,0.00,,,0.00,0.000000,,2013-03-10 05:02:00,
2013-03-10 00:10:00,45.0,32.0,29.38,NW,324,1.0,6.0,60,0.00,,,0.00,0.000000,,2013-03-10 05:10:00,
2013-03-10 00:32:00,45.0,32.0,29.38,NW,324,1.0,6.0,60,0.00,,,0.00,0.000000,,2013-03-10 05:32:00,
2013-03-10 00:42:00,45.0,32.0,29.38,NW,324,1.0,6.0,60,0.00,,,0.00,0.000000,,2013-03-10 05:42:00,
2013-03-10 00:52:00,45.0,32.0,29.38,NW,324,1.0,6.0,60,0.00,,,0.00,0.000000,,2013-03-10 05:52:00,
2013-03-10 01:02:00,45.0,32.0,29.38,NW,324,1.0,6.0,60,0.00,,,0.00,0.000000,,2013-03-10 06:02:00,
2013-03-10 01:10:00,43.0,32.0,29.37,WNW,287,0.0,3.0,64,0.00,,,0.00,0.000000,,2013-03-10 06:10:00,
2013-03-10 01:32:00,43.0,32.0,29.37,WNW,287,0.0,3.0,64,0.00,,,0.00,0.000000,,2013-03-10 06:32:00,
2013-03-10 01:42:00,43.0,32.0,29.37,WNW,287,0.0,3.0,64,0.00,,,0.00,0.000000,,2013-03-10 06:42:00,
2013-03-10 01:52:00,43.0,32.0,29.37,WNW,287,0.0,3.0,64,0.00,,,0.00,0.000000,,2013-03-10 06:52:00,
2013-03-10 03:02:00,43.0,32.0,29.37,WNW,287,0.0,3.0,64,0.00,,,0.00,0.000000,,2013-03-10 07:02:00,
2013-03-10 03:10:00,39.0,31.0,29.38,NW,314,1.0,3.0,73,0.00,,,0.00,0.000000,,2013-03-10 07:10:00,
2013-03-10 03:32:00,39.0,31.0,29.38,NW,314,1.0,3.0,73,0.00,,,0.00,0.000000,,2013-03-10 07:32:00,
2013-03-10 03:42:00,39.0,31.0,29.38,NW,314,1.0,3.0,73,0.00,,,0.00,0.000000,,2013-03-10 07:42:00,
2013-03-10 03:52:00,39.0,31.0,29.38,NW,314,1.0,3.0,73,0.00,,,0.00,0.000000,,2013-03-10 07:52:00,
2013-03-10 04:02:00,39.0,31.0,29.38,NW,314,1.0,3.0,73,0.00,,,0.00,0.000000,,2013-03-10 08:02:00,
2013-03-10 04:10:00,37.0,29.0,29.37,NW,314,2.0,3.0,74,0.00,,,0.00,0.000000,,2013-03-10 08:10:00,
2013-03-10 04:42:00,37.0,29.0,29.37,NW,314,2.0,3.0,74,0.00,,,0.00,0.000000,,2013-03-10 08:42:00,
2013-03-10 04:52:00,37.0,29.0,29.37,NW,314,2.0,3.0,74,0.00,,,0.00,0.000000,,2013-03-10 08:52:00,
2013-03-10 05:02:00,37.0,29.0,29.37,NW,314,2.0,3.0,74,0.00,,,0.00,0.000000,,2013-03-10 09:02:00,
2013-03-10 05:10:00,35.0,29.0,29.37,NE,42,1.0,3.0,79,0.00,,,0.00,0.000000,,2013-03-10 09:10:00,
2013-03-10 05:42:00,35.0,29.0,29.37,NE,42,1.0,3.0,79,0.00,,,0.00,0.000000,,2013-03-10 09:42:00,
2013-03-10 05:52:00,35.0,29.0,29.37,NE,42,1.0,3.0,79,0.00,,,0.00,0.000000,,2013-03-10 09:52:00,
2013-03-10 06:02:00,35.0,29.0,29.37,NE,42,1.0,3.0,79,0.00,,,0.00,0.000000,,2013-03-10 10:02:00,
2013-03-10 06:10:00,33.0,28.0,29.37,WNW,291,1.0,2.0,83,0.00,,,0.00,0.000000,,2013-03-10 10:10:00,
2013-03-10 06:32:00,33.0,28.0,29.37,WNW,291,1.0,2.0,83,0.00,,,0.00,0.000000,,2013-03-10 10:32:00,
2013-03-10 06:42:00,33.0,28.0,29.37,WNW,291,1.0,2.0,83,0.00,,,0.00,0.000000,,2013-03-10 10:42:00,
2013-03-10 06:52:00,33.0,28.0,29.37,WNW,291,1.0,2.0,83,0.00,,,0.00,0.000000,,2013-03-10 10:52:00,
2013-03-10 07:02:00,33.0,28.0,29.37,WNW,291,1.0,2.0,83,0.00,,,0.00,0.000000,,2013-03-10 11:02:00,
2013-03-10 09:10:00,38.0,30.0,29.41,NW,324,1.0,4.0,74,-99.99,,,0.00,5.000000,,2013-03-10 13:10:00,
2013-03-10 09:42:00,38.0,30.0,29.41,NW,324,1.0,4.0,74,-99.99,,,0.00,5.000000,,2013-03-10 13:42:00,
2013-03-10 09:52:00,38.0,30.0,29.41,NW,324,1.0,4.0,74,-99.99,,,0.00,5.000000,,2013-03-10 13:52:00,
2013-03-10 10:02:00,38.0,30.0,29.41,NW,324,1.0,4.0,74,-99.99,,,0.00,5.000000,,2013-03-10 14:02:00,
2013-03-10 10:10:00,51.0,34.0,29.41,SE,138,1.0,50.0,51,0.00,,,0.00,65.000000,,2013-03-10 14:10:00,
2013-03-10 10:32:00,51.0,34.0,29.41,SE,138,1.0,50.0,51,0.00,,,0.00,65.000000,,2013-03-10 14:32:00,
2013-03-10 10:42:00,51.0,34.0,29.41,SE,138,1.0,50.0,51,0.00,,,0.00,65.000000,,2013-03-10 14:42:00,
2013-03-10 10:52:00,51.0,34.0,29.41,SE,138,1.0,50.0,51,0.00,,,0.00,65.000000,,2013-03-10 14:52:00,
2013-03-10 11:01:00,51.0,34.0,29.41,SE,138,1.0,50.0,51,0.00,,,0.00,65.000000,,2013-03-10 15:01:00,
2013-03-10 11:10:00,60.0,34.0,29.41,SW,220,3.0,5.0,37,0.00,,,0.00,207.000000,,2013-03-10 15:10:00,
2013-03-10 11:42:00,60.0,34.0,29.41,SW,220,3.0,5.0,37,0.00,,,0.00,207.000000,,2013-03-10 15:42:00,
2013-03-10 11:52:00,60.0,34.0,29.41,SW,220,3.0,5.0,37,0.00,,,0.00,207.000000,,2013-03-10 15:52:00,
2013-03-10 12:02:00,60.0,34.0,29.41,SW,220,3.0,5.0,37,0.00,,,0.00,207.000000,,2013-03-10 16:02:00,
2013-03-10 12:10:00,65.0,30.0,29.39,ESE,105,3.0,12.0,27,0.00,,,0.00,473.000000,,2013-03-10 16:10:00,
2013-03-10 12:32:00,65.0,30.0,29.39,ESE,105,3.0,12.0,27,0.00,,,0.00,473.000000,,2013-03-10 16:32:00,
2013-03-10 12:42:00,65.0,30.0,29.39,ESE,105,3.0,12.0,27,0.00,,,0.00,473.000000,,2013-03-10 16:42:00,
2013-03-10 12:52:00,65.0,30.0,29.39,ESE,105,3.0,12.0,27,0.00,,,0.00,473.000000,,2013-03-10 16:52:00,
2013-03-10 13:01:00,65.0,30.0,29.39,ESE,105,3.0,12.0,27,0.00,,,0.00,473.000000,,2013-03-10 17:01:00,
2013-03-10 14:10:00,68.0,30.0,29.34,SE,134,6.0,15.0,24,-99.99,,,0.00,828.000000,,2013-03-10 18:10:00,
2013-03-10 14:42:00,68.0,30.0,29.34,SE,134,6.0,15.0,24,-99.99,,,0.00,828.000000,,2013-03-10 18:42:00,
2013-03-10 14:52:00,68.0,30.0,29.34,SE,134,6.0,15.0,24,-99.99,,,0.00,828.000000,,2013-03-10 18:52:00,
2013-03-10 15:02:00,68.0,30.0,29.34,SE,134,6.0,15.0,24,-99.99,,,0.00,828.000000,,2013-03-10 19:02:00,
2013-03-10 15:10:00,72.0,32.0,29.30,NNE,18,4.0,16.0,23,0.00,,,0.00,927.000000,,2013-03-10 19:10:00,
2013-03-10 15:32:00,72.0,32.0,29.30,NNE,18,4.0,16.0,23,0.00,,,0.00,927.000000,,2013-03-10 19:32:00,
2013-03-10 15:42:00,72.0,32.0,29.30,NNE,18,4.0,16.0,23,0.00,,,0.00,927.000000,,2013-03-10 19:42:00,
2013-03-10 15:53:00,72.0,32.0,29.30,NNE,18,4.0,16.0,23,0.00,,,0.00,927.000000,,2013-03-10 19:53:00,
2013-03-10 16:02:00,72.0,32.0,29.30,NNE,18,4.0,16.0,23,0.00,,,0.00,927.000000,,2013-03-10 20:02:00,
2013-03-10 16:10:00,71.0,30.0,29.29,SSE,168,5.0,14.0,22,0.00,,,0.00,886.000000,,2013-03-10 20:10:00,
2013-03-10 16:33:00,71.0,30.0,29.29,SSE,168,5.0,14.0,22,0.00,,,0.00,886.000000,,2013-03-10 20:33:00,
2013-03-10 16:43:00,71.0,30.0,29.29,SSE,168,5.0,14.0,22,0.00,,,0.00,886.000000,,2013-03-10 20:43:00,
2013-03-10 16:53:00,71.0,30.0,29.29,SSE,168,5.0,14.0,22,0.00,,,0.00,886.000000,,2013-03-10 20:53:00,
2013-03-10 17:02:00,71.0,30.0,29.29,SSE,168,5.0,14.0,22,0.00,,,0.00,886.000000,,2013-03-10 21:02:00,
2013-03-10 17:10:00,70.0,32.0,29.29,SSE,164,5.0,16.0,24,0.00,,,0.00,502.000000,,2013-03-10 21:10:00,
2013-03-10 17:33:00,70.0,32.0,29.29,SSE,164,5.0,16.0,24,0.00,,,0.00,502.000000,,2013-03-10 21:33:00,
2013-03-10 17:43:00,70.0,32.0,29.29,SSE,164,5.0,16.0,24,0.00,,,0.00,502.000000,,2013-03-10 21:43:00,
2013-03-10 17:53:00,70.0,32.0,29.29,SSE,164,5.0,16.0,24,0.00,,,0.00,502.000000,,2013-03-10 21:53:00,
2013-03-10 18:03:00,70.0,32.0,29.29,SSE,164,5.0,16.0,24,0.00,,,0.00,502.000000,,2013-03-10 22:03:00,
2013-03-10 18:10:00,64.0,30.0,29.27,SSE,164,4.0,11.0,28,0.00,,,0.00,520.000000,,2013-03-10 22:10:00,
2013-03-10 18:33:00,64.0,30.0,29.27,SSE,164,4.0,11.0,28,0.00,,,0.00,520.000000,,2013-03-10 22:33:00,
2013-03-10 18:43:00,64.0,30.0,29.27,SSE,164,4.0,11.0,28,0.00,,,0.00,520.000000,,2013-03-10 22:43:00,
2013-03-10 18:53:00,64.0,30.0,29.27,SSE,164,4.0,11.0,28,0.00,,,0.00,520.000000,,2013-03-10 22:53:00,
2013-03-10 19:03:00,64.0,30.0,29.27,SSE,164,4.0,11.0,28,0.00,,,0.00,520.000000,,2013-03-10 23:03:00,
2013-03-10 19:10:00,61.0,32.0,29.29,SSE,151,4.0,12.0,34,0.00,,,0.00,200.000000,,2013-03-10 23:10:00,
2013-03-10 19:33:00,61.0,32.0,29.29,SSE,151,4.0,12.0,34,0.00,,,0.00,200.000000,,2013-03-10 23:33:00,
2013-03-10 19:43:00,61.0,32.0,29.29,SSE,151,4.0,12.0,34,0.00,,,0.00,200.000000,,2013-03-10 23:43:00,
2013-03-10 19:53:00,61.0,32.0,29.29,SSE,151,4.0,12.0,34,0.00,,,0.00,200.000000,,2013-03-10 23:53:00,
2013-03-10 20:02:00,61.0,32.0,29.29,SSE,151,4.0,12.0,34,0.00,,,0.00,200.000000,,2013-03-11 00:02:00,
2013-03-10 20:10:00,55.0,31.0,29.29,SE,128,2.0,8.0,40,0.00,,,0.00,77.000000,,2013-03-11 00:10:00,
2013-03-10 20:33:00,55.0,31.0,29.29,SE,128,2.0,8.0,40,0.00,,,0.00,77.000000,,2013-03-11 00:33:00,
2013-03-10 20:43:00,55.0,31.0,29.29,SE,128,2.0,8.0,40,0.00,,,0.00,77.000000,,2013-03-11 00:43:00,
2013-03-10 20:53:00,55.0,31.0,29.29,SE,128,2.0,8.0,40,0.00,,,0.00,77.000000,,2013-03-11 00:53:00,
2013-03-10 21:03:00,55.0,31.0,29.29,SE,128,2.0,8.0,40,0.00,,,0.00,77.000000,,2013-03-11 01:03:00,
2013-03-10 21:10:00,53.0,31.0,29.31,North,7,1.0,6.0,43,0.00,,,0.00,11.000000,,2013-03-11 01:10:00,
2013-03-10 21:33:00,53.0,31.0,29.31,North,7,1.0,6.0,43,0.00,,,0.00,11.000000,,2013-03-11 01:33:00,
2013-03-10 21:43:00,53.0,31.0,29.31,North,7,1.0,6.0,43,0.00,,,0.00,11.000000,,2013-03-11 01:43:00,
2013-03-10 21:53:00,53.0,31.0,29.31,North,7,1.0,6.0,43,0.00,,,0.00,11.000000,,2013-03-11 01:53:00,
2013-03-10 22:03:00,53.0,31.0,29.31,North,7,1.0,6.0,43,0.00,,,0.00,11.000000,,2013-03-11 02:03:00,
2013-03-10 22:10:00,50.0,33.0,29.31,SE,128,1.0,5.0,51,0.00,,,0.00,0.000000,,2013-03-11 02:10:00,
2013-03-10 22:42:00,50.0,33.0,29.31,SE,128,1.0,5.0,51,0.00,,,0.00,0.000000,,2013-03-11 02:42:00,
2013-03-10 22:53:00,50.0,33.0,29.31,SE,128,1.0,5.0,51,0.00,,,0.00,0.000000,,2013-03-11 02:53:00,
2013-03-10 23:02:00,50.0,33.0,29.31,SE,128,1.0,5.0,51,0.00,,,0.00,0.000000,,2013-03-11 03:02:00,
2013-03-10 23:10:00,49.0,34.0,29.31,SW,225,1.0,3.0,56,0.00,,,0.00,0.000000,,2013-03-11 03:10:00,
2013-03-10 23:32:00,49.0,34.0,29.31,SW,225,1.0,3.0,56,0.00,,,0.00,0.000000,,2013-03-11 03:32:00,
2013-03-10 23:43:00,49.0,34.0,29.31,SW,225,1.0,3.0,56,0.00,,,0.00,0.000000,,2013-03-11 03:43:00,
2013-03-10 23:53:00,49.0,34.0,29.31,SW,225,1.0,3.0,56,0.00,,,0.00,0.000000,,2013-03-11 03:53:00,